Temperature
-1 -0 -0 -0 -0 -1 -1 -0 0 0 0 1 0 -1 -1 -1 -1 -1 -1 -1 -1 -1 -1 -2 -2 -1 -1 -1 -1 -1 -1 -1 -1 -1 -1 -1 -1 -1 -1 -1 -1 -1 -0 -1
-2 -1 -1 -1 -1 -1 -1 -1 -1 -1 -0 -0 -1 -1 -2 -2 -2 -2 -2 -2 -2 -2 -2 -2 -2 -2 -2 -2 -2 -2 -2 -2 -2 -2 -2 -2 -2 -2 -2 -1 -1 -1 -1 -1
-1 -2 -2 -2 -2 -1 -1 -2 -2 -1 -0 -2 -3 -3 -3 -2 -2 -2 -2 -2 -3 -3 -3 -3 -2 -2 -2 -2 -3 -3 -3 -3 -3 -3 -3 -3 -3 -2 -2 -2 -2 -2 -2 -2
-3 -3 -2 -1 -2 -2 -2 -2 -3 -2 -2 -3 -3 -3 -3 -2 -2 -2 -3 -3 -3 -3 -3 -3 -3 -3 -3 -3 -3 -3 -3 -4 -3 -4 -3 -3 -3 -3 -3 -3 -3 -3 -3 -3
-3 -3 -3 -2 -2 -3 -3 -3 -4 -4 -4 -4 -4 -4 -3 -2 -2 -3 -3 -3 -4 -4 -4 -4 -4 -4 -4 -4 -4 -4 -4 -4 -4 -4 -4 -4 -4 -4 -4 -4 -4 -4 -4 -4
-3 -3 -2 -1 -3 -3 -3 -3 -4 -5 -5 -5 -5 -4 -4 -3 -3 -3 -4 -4 -4 -4 -4 -4 -4 -5 -5 -5 -5 -5 -5 -5 -5 -5 -5 -5 -5 -5 -5 -5 -4 -4 -4 -4
-4 -3 -3 -4 -4 -4 -2 -2 -3 -4 -4 -5 -6 -4 -4 -4 -4 -4 -4 -4 -4 -5 -5 -5 -5 -5 -5 -5 -5 -5 -6 -6 -6 -6 -6 -6 -6 -5 -5 -5 -5 -5 -5 -5
-4 -4 -3 -4 -5 -4 -3 -3 -4 -4 -4 -5 -5 -5 -5 -5 -5 -5 -5 -5 -5 -5 -5 -6 -6 -6 -6 -6 -6 -6 -6 -6 -6 -6 -7 -7 -7 -6 -6 -6 -6 -6 -6 -6
-4 -3 -4 -4 -4 -4 -4 -4 -4 -4 -4 -5 -5 -5 -5 -5 -5 -5 -5 -5 -6 -6 -6 -6 -6 -7 -7 -7 -7 -7 -7 -7 -7 -7 -7 -7 -7 -7 -7 -7 -7 -7 -7 -7
-6 -6 -6 -5 -5 -4 -4 -5 -5 -5 -5 -5 -5 -5 -5 -6 -6 -6 -6 -6 -6 -6 -7 -7 -7 -7 -7 -7 -8 -8 -8 -8 -8 -8 -8 -8 -8 -8 -8 -8 -8 -8 -8 -8
-7 -7 -7 -6 -5 -5 -5 -5 -5 -5 -5 -6 -6 -6 -6 -6 -6 -6 -6 -7 -7 -7 -7 -7 -7 -8 -8 -8 -8 -8 -8 -8 -9 -9 -9 -9 -9 -9 -9 -9 -9 -9 -9 -9
-5 -6 -7 -6 -5 -6 -6 -6 -6 -6 -6 -6 -6 -6 -7 -7 -7 -7 -7 -7 -7 -7 -8 -8 -8 -8 -9 -9 -9 -9 -9 -9 -9 -10 -10 -10 -10 -10 -10 -10 -10 -10 -10 -10
-6 -6 -6 -6 -6 -7 -7 -7 -7 -7 -7 -7 -7 -7 -7 -7 -7 -7 -8 -8 -8 -8 -8 -8 -9 -9 -9 -9 -10 -10 -10 -10 -10 -10 -10 -10 -10 -10 -10 -10 -10 -10 -10 -10
-7 -7 -8 -7 -7 -7 -7 -7 -7 -7 -7 -7 -7 -7 -8 -8 -8 -8 -8 -8 -9 -9 -9 -9 -9 -10 -10 -10 -10 -10 -10 -11 -11 -11 -11 -11 -11 -11 -11 -11 -11 -10 -10 -10
-7 -8 -8 -8 -8 -8 -8 -8 -8 -8 -8 -8 -8 -8 -8 -8 -8 -8 -9 -9 -9 -9 -9 -10 -10 -10 -11 -11 -11 -11 -11 -11 -11 -11 -11 -11 -11 -12 -12 -12 -12 -11 -11 -11
-8 -8 -8 -8 -8 -8 -8 -8 -9 -8 -9 -9 -9 -9 -9 -9 -9 -9 -10 -10 -10 -10 -10 -10 -10 -11 -11 -11 -11 -11 -11 -12 -12 -12 -12 -12 -12 -12 -12 -12 -12 -12 -12 -12
-9 -9 -9 -9 -9 -9 -9 -9 -9 -9 -9 -9 -9 -9 -10 -10 -10 -10 -10 -10 -10 -10 -11 -11 -11 -11 -11 -12 -12 -12 -12 -12 -12 -12 -12 -12 -12 -12 -12 -12 -12 -13 -12 -12
-9 -9 -9 -9 -9 -9 -10 -10 -10 -10 -10 -10 -10 -10 -10 -10 -10 -10 -11 -11 -11 -11 -11 -11 -12 -12 -12 -12 -12 -12 -12 -12 -13 -13 -13 -13 -13 -13 -13 -13 -13 -13 -13 -13
-9 -9 -9 -9 -10 -10 -10 -10 -10 -10 -10 -10 -10 -10 -11 -11 -11 -11 -11 -11 -11 -11 -12 -12 -12 -12 -12 -12 -13 -13 -13 -13 -13 -13 -13 -13 -13 -13 -14 -13 -13 -13 -13 -13
-9 -10 -10 -10 -10 -10 -10 -10 -11 -11 -11 -11 -11 -11 -11 -11 -12 -12 -12 -12 -12 -12 -12 -12 -12 -12 -13 -13 -13 -13 -13 -13 -13 -13 -14 -14 -14 -14 -14 -14 -14 -14 -14 -14
-10 -10 -10 -10 -10 -11 -11 -11 -11 -11 -11 -11 -11 -12 -12 -12 -12 -12 -12 -12 -12 -13 -13 -13 -13 -13 -13 -13 -13 -13 -13 -14 -14 -14 -14 -14 -14 -14 -14 -14 -14 -14 -14 -14
-10 -11 -11 -11 -11 -11 -11 -11 -12 -12 -12 -12 -12 -12 -12 -12 -12 -13 -13 -13 -13 -13 -13 -13 -13 -13 -13 -14 -14 -14 -14 -14 -14 -14 -14 -14 -14 -14 -14 -15 -15 -15 -15 -15
-11 -11 -11 -11 -12 -12 -12 -12 -12 -12 -12 -12 -12 -12 -13 -13 -13 -13 -13 -13 -13 -13 -13 -13 -13 -14 -14 -14 -14 -14 -14 -14 -14 -14 -14 -14 -15 -15 -15 -15 -15 -15 -15 -15
-11 -12 -12 -12 -12 -12 -12 -12 -13 -13 -13 -13 -13 -13 -13 -13 -13 -13 -14 -14 -14 -14 -14 -14 -14 -14 -14 -14 -14 -14 -14 -14 -14 -14 -15 -15 -15 -15 -15 -15 -15 -15 -15 -15
-12 -12 -12 -12 -12 -13 -13 -13 -13 -13 -13 -14 -14 -14 -14 -14 -14 -14 -14 -14 -14 -14 -14 -14 -14 -15 -15 -15 -15 -15 -15 -15 -15 -15 -15 -15 -15 -15 -15 -15 -15 -15 -15 -15
-12 -12 -13 -13 -13 -13 -13 -13 -13 -14 -14 -14 -14 -14 -14 -14 -14 -14 -14 -14 -14 -14 -15 -15 -15 -15 -15 -15 -15 -15 -15 -15 -15 -15 -15 -15 -15 -15 -15 -15 -15 -15 -15 -15
-13 -13 -13 -13 -13 -14 -14 -14 -14 -14 -14 -14 -14 -14 -14 -14 -15 -15 -15 -15 -15 -15 -15 -15 -15 -15 -15 -15 -15 -15 -15 -15 -15 -15 -15 -15 -16 -16 -16 -16 -15 -15 -15 -15
Wind_Speed
8 8 6 9 10 9 11 10 10 11 12 13 9 7 6 4 3 3 3 2 2 2 2 2 2 2 2 2 2 2 2 2 3 3 3 3 2 2 2 2 3 3 3 3
6 6 7 10 12 12 13 11 12 13 14 11 7 4 5 5 4 4 4 3 3 2 2 2 2 2 3 3 3 2 2 2 3 3 3 3 3 2 2 2 2 2 2 3
5 4 4 8 10 10 8 8 8 12 12 5 4 5 5 5 5 5 4 3 3 3 3 3 3 2 3 3 3 2 2 2 3 3 3 3 3 3 2 2 2 2 2 2
3 2 7 8 3 6 7 8 9 8 7 6 6 5 5 5 5 5 4 4 3 3 3 2 2 2 2 2 1 2 2 2 3 3 3 3 3 3 3 3 2 2 2 2
3 4 9 8 4 4 6 7 6 8 7 5 3 3 4 3 3 4 4 4 3 3 2 2 1 1 1 1 1 1 2 3 3 3 3 3 3 3 3 3 3 3 2 2
4 4 7 7 3 2 2 5 4 4 5 4 0 2 4 2 2 3 2 2 2 1 1 1 1 1 1 1 1 2 3 3 3 3 3 3 3 3 3 2 3 3 3 2
7 7 8 6 2 4 4 6 2 3 4 3 4 5 4 3 3 2 2 2 1 1 1 1 1 1 1 1 2 3 3 2 2 3 3 2 2 2 2 2 2 2 3 3
5 6 9 3 5 6 6 1 1 2 3 3 4 5 4 3 3 3 2 2 1 1 1 1 1 1 1 2 2 2 2 2 2 2 2 2 2 2 2 2 2 2 2 3
8 8 3 4 5 3 1 2 3 3 4 3 4 4 4 3 3 3 2 2 1 1 1 1 0 1 1 2 1 2 2 2 2 3 2 2 1 2 2 2 2 2 2 2
5 8 6 5 4 3 3 4 4 4 4 3 4 4 4 3 3 2 2 1 1 1 1 1 1 1 1 1 1 1 1 2 2 2 2 2 2 1 1 2 2 2 2 3
7 7 5 5 4 5 4 3 3 3 3 3 3 4 3 3 3 2 2 1 1 1 1 2 1 1 1 1 0 1 1 2 2 2 2 2 2 2 2 2 2 2 2 2
8 6 5 5 3 3 3 4 4 4 4 3 3 4 3 3 3 2 2 1 1 1 1 1 1 1 1 1 0 0 1 2 2 2 2 2 2 3 4 4 5 5 5 4
6 4 4 5 4 3 3 5 4 4 4 4 3 2 2 2 2 2 1 1 2 2 1 1 1 2 2 1 1 1 1 2 1 2 2 2 2 2 3 4 5 5 5 6
5 2 3 4 4 4 3 4 3 3 3 3 3 2 1 2 2 2 2 2 1 1 1 1 1 2 2 1 1 1 1 2 2 1 2 2 2 2 2 2 3 4 5 6
5 5 6 4 3 3 2 1 2 2 2 3 2 1 1 2 2 3 2 1 0 1 1 1 2 3 2 1 1 1 1 1 1 1 1 1 1 1 2 2 2 3 4 5
3 2 3 3 4 3 2 2 3 3 3 3 3 2 2 2 2 2 2 1 1 2 2 2 3 3 2 1 1 1 1 3 2 1 1 1 1 1 1 1 2 3 3 3
2 3 3 3 4 4 3 3 3 4 3 3 4 2 1 1 1 2 2 1 2 2 3 3 3 2 1 1 1 1 1 2 3 2 1 1 1 1 1 1 2 3 3 3
5 5 5 5 4 4 4 3 3 3 3 3 3 1 1 2 2 3 3 2 1 2 3 3 2 1 1 1 1 1 1 1 1 1 2 2 2 2 2 2 2 3 3 4
3 3 3 3 3 3 3 4 4 3 3 2 2 2 3 3 3 3 2 1 2 3 3 3 3 1 2 2 1 1 1 1 1 1 2 3 2 2 2 2 2 3 3 3
2 2 2 2 2 2 3 3 3 2 2 2 2 2 2 3 2 2 2 2 3 4 3 3 2 2 2 3 2 1 1 2 2 2 2 2 2 2 2 2 2 3 3 3
2 2 2 2 2 2 2 2 2 3 2 2 2 3 3 3 2 2 2 3 3 3 3 4 2 2 2 3 3 1 2 2 2 2 2 2 2 2 2 3 3 3 3 3
2 2 2 2 2 3 2 2 2 2 2 1 2 2 2 2 2 2 3 3 4 4 2 2 2 4 4 3 1 1 2 2 2 2 2 2 2 3 3 3 3 3 3 3
2 1 1 2 2 2 2 1 2 2 2 2 2 2 2 2 2 2 3 2 2 4 2 2 4 6 5 2 1 1 1 2 2 2 3 3 3 3 3 4 4 4 4 4
1 1 1 1 0 0 2 2 1 1 1 2 2 2 2 2 2 3 3 4 5 5 2 4 6 5 4 0 1 1 2 2 3 3 3 3 3 3 3 4 4 4 4 4
1 1 1 1 1 2 2 2 1 1 1 1 2 2 2 2 3 3 2 3 5 5 3 4 6 5 2 1 1 2 2 3 3 3 3 3 3 4 4 4 4 4 4 5
1 1 2 2 2 2 1 1 1 1 1 2 2 2 1 1 2 2 2 3 3 4 3 2 3 4 2 2 2 3 3 4 4 3 3 3 4 4 4 4 5 5 5 5
1 1 1 1 1 1 1 1 2 2 2 2 2 2 2 2 2 2 2 2 2 2 2 2 2 2 2 3 3 3 3 3 3 3 4 4 4 4 5 5 5 5 5 6
Wind_Direction
253 266 259 252 247 222 219 226 234 251 251 264 268 266 269 270 270 273 283 291 286 282 290 308 326 332 329 326 337 344 350 342 328 329 330 329 317 305 295 282 273 253 240 246
270 261 261 268 256 237 236 236 241 259 268 267 273 269 270 268 262 262 270 277 280 282 286 290 299 310 322 321 327 336 335 325 329 338 340 335 325 317 309 297 294 267 241 237
265 285 308 269 244 224 219 218 214 237 250 259 270 267 260 260 257 258 266 273 270 266 266 273 277 288 294 306 320 327 327 328 330 333 332 326 324 331 319 299 299 275 255 252
262 350 248 246 220 204 219 243 227 235 247 246 250 268 264 245 235 253 267 268 265 266 275 280 285 295 301 307 315 324 328 325 329 333 326 328 330 326 320 309 293 279 260 262
200 242 271 286 254 192 208 263 241 234 255 269 289 313 290 253 226 243 251 253 252 249 257 269 273 285 302 305 318 323 316 316 319 315 315 323 321 317 315 314 317 306 277 259
195 222 246 255 245 179 132 279 261 209 241 257 192 288 276 287 286 274 271 263 262 259 265 244 255 199 194 256 280 291 299 303 307 307 303 306 305 306 309 308 308 316 311 289
218 235 260 259 224 131 175 252 261 206 225 219 219 238 274 310 311 292 281 276 253 213 214 237 221 177 202 237 265 292 308 316 319 317 311 305 310 310 310 315 318 314 313 310
195 221 252 212 144 185 221 261 253 258 244 234 246 269 280 284 285 287 289 294 256 221 271 279 197 178 222 264 294 315 324 328 326 326 327 331 324 322 326 329 323 314 318 316
203 223 249 175 197 226 231 246 261 260 261 247 261 271 274 277 283 285 277 280 269 216 262 306 246 186 228 284 319 332 342 338 332 336 337 331 316 319 330 334 322 308 311 309
246 258 257 253 257 280 271 256 271 263 264 253 254 267 275 285 293 298 296 285 278 198 254 292 308 313 248 287 322 333 332 331 337 342 337 335 330 327 319 314 307 305 304 301
252 270 290 270 251 261 276 275 281 286 271 253 251 270 271 280 289 287 292 290 240 224 252 276 300 314 309 302 346 346 331 330 336 337 331 329 329 316 312 299 299 303 294 290
241 235 224 251 251 254 262 271 268 274 288 282 245 254 265 272 277 278 281 283 275 261 258 269 276 293 301 296 254 310 332 334 329 329 330 332 336 335 326 324 327 335 331 322
243 255 244 258 275 270 263 270 273 263 258 271 276 253 249 270 276 270 273 270 260 260 252 247 261 283 290 288 279 258 266 291 301 313 313 318 327 335 332 333 337 339 339 339
244 248 265 257 262 275 265 274 286 289 282 269 271 275 261 274 281 270 266 262 253 243 245 236 250 275 283 282 281 286 281 291 303 291 293 300 306 311 314 322 330 332 333 338
253 237 235 258 284 296 293 297 304 300 304 307 296 274 259 258 269 276 281 273 250 246 257 250 264 280 287 276 275 276 290 286 290 296 296 298 304 311 315 317 318 322 329 335
283 274 245 252 265 279 295 293 279 283 290 290 287 277 269 266 281 296 291 234 200 252 266 262 263 271 269 263 278 288 284 295 313 310 312 313 311 307 307 309 312 316 319 323
249 271 266 267 269 276 272 266 260 267 274 273 274 274 280 308 314 301 292 276 250 255 262 258 261 266 261 248 249 276 288 296 316 323 300 290 289 288 287 290 293 301 306 312
240 242 239 237 248 262 277 280 273 268 264 268 270 249 226 233 255 274 289 305 314 309 288 267 259 257 253 259 251 258 262 274 283 279 288 287 291 290 289 289 292 298 307 316
261 253 256 253 247 241 254 266 270 268 268 255 239 236 241 245 247 259 267 273 274 285 288 274 278 288 266 261 271 218 229 257 284 281 281 284 301 299 293 290 293 298 303 313
287 280 274 279 276 247 258 268 268 272 266 235 223 236 261 264 249 244 248 259 253 251 256 269 276 269 261 257 273 221 218 244 264 275 278 278 281 286 287 287 288 293 299 301
289 292 291 287 290 283 266 257 250 263 270 226 215 233 251 267 254 229 239 277 284 254 251 272 276 265 261 264 271 228 230 245 257 264 271 277 279 282 283 285 287 289 291 293
283 283 287 292 295 301 296 271 245 248 258 247 241 239 250 271 271 261 245 249 271 283 287 266 266 271 275 272 235 234 243 247 254 263 266 267 269 272 276 280 283 286 286 285
278 278 283 285 281 295 311 297 254 236 233 236 241 240 242 252 252 254 281 276 266 283 294 264 276 284 284 270 218 228 243 253 259 261 262 261 262 264 268 273 276 277 279 281
273 283 287 297 331 353 310 304 299 280 255 256 252 244 242 265 279 256 254 285 296 299 292 284 293 299 305 337 231 243 252 258 258 258 259 260 259 261 264 268 272 274 274 275
251 259 271 281 272 272 273 288 313 305 296 292 286 270 251 241 250 270 273 273 287 302 301 295 299 306 320 297 271 264 263 260 257 256 253 260 261 261 263 264 266 270 272 273
266 260 261 257 257 266 272 268 275 287 292 300 307 296 280 269 261 271 276 276 277 292 297 293 300 301 296 279 271 268 265 275 282 275 262 263 263 264 266 266 265 266 268 270
285 283 289 296 291 274 264 256 260 271 268 266 287 295 292 293 292 290 286 284 286 286 285 287 286 281 278 275 272 269 267 266 267 267 265 263 263 263 263 264 268 270 270 270
Height
1487 1485 1485 1482 1481 1483 1484 1480 1479 1471 1469 1462 1461 1461 1460 1460 1459 1459 1458 1458 1458 1457 1457 1456 1456 1455 1455 1455 1455 1455 1454 1454 1454 1454 1454 1454 1454 1455 1455 1455 1455 1455 1456 1457
1487 1483 1482 1479 1475 1475 1475 1474 1473 1469 1465 1459 1458 1458 1457 1457 1456 1455 1455 1455 1455 1455 1454 1453 1453 1452 1452 1452 1452 1451 1451 1451 1451 1451 1450 1450 1450 1450 1451 1451 1451 1451 1451 1451
1485 1483 1481 1477 1470 1468 1467 1466 1466 1463 1458 1456 1456 1455 1454 1454 1453 1452 1452 1452 1452 1451 1451 1451 1450 1450 1449 1449 1449 1448 1448 1447 1447 1447 1446 1446 1446 1446 1446 1446 1446 1446 1446 1447
1488 1487 1482 1465 1461 1460 1461 1460 1459 1456 1453 1453 1453 1452 1451 1450 1450 1449 1449 1449 1448 1448 1448 1448 1447 1447 1447 1446 1446 1445 1445 1444 1444 1443 1443 1442 1442 1442 1442 1442 1442 1442 1442 1442
1487 1486 1475 1464 1459 1460 1461 1458 1454 1454 1452 1452 1451 1450 1448 1447 1447 1447 1446 1446 1446 1445 1445 1444 1444 1444 1443 1443 1442 1442 1441 1441 1440 1440 1439 1438 1438 1438 1438 1437 1437 1438 1438 1438
1484 1481 1473 1459 1457 1455 1458 1458 1451 1450 1451 1450 1450 1451 1447 1445 1445 1444 1443 1443 1442 1442 1442 1441 1441 1440 1440 1439 1439 1438 1438 1438 1438 1437 1436 1435 1435 1434 1434 1434 1433 1433 1434 1434
1479 1477 1466 1457 1455 1456 1460 1453 1449 1448 1448 1448 1448 1447 1445 1443 1442 1442 1441 1440 1439 1439 1438 1438 1437 1437 1436 1436 1436 1436 1435 1435 1435 1434 1433 1432 1432 1431 1431 1430 1429 1429 1429 1430
1476 1473 1464 1453 1454 1455 1451 1447 1447 1446 1446 1445 1444 1443 1442 1441 1440 1439 1438 1437 1436 1436 1435 1435 1434 1434 1433 1433 1433 1433 1432 1432 1431 1431 1430 1429 1428 1428 1427 1426 1426 1425 1425 1425
1463 1457 1450 1448 1448 1447 1446 1446 1444 1444 1444 1443 1441 1440 1439 1438 1437 1436 1435 1434 1433 1433 1432 1432 1432 1431 1430 1430 1430 1429 1429 1429 1428 1427 1427 1426 1425 1424 1424 1423 1423 1422 1421 1421
1458 1449 1446 1446 1445 1444 1444 1443 1442 1442 1441 1440 1438 1437 1436 1435 1434 1433 1432 1431 1431 1430 1429 1429 1429 1428 1428 1428 1427 1426 1426 1425 1425 1424 1424 1423 1423 1422 1421 1421 1420 1419 1419 1418
1452 1446 1444 1441 1441 1441 1440 1439 1439 1439 1438 1437 1436 1434 1434 1433 1431 1431 1430 1429 1428 1427 1427 1426 1426 1426 1425 1425 1424 1424 1423 1423 1422 1422 1421 1420 1420 1420 1419 1418 1418 1417 1416 1416
1443 1440 1441 1439 1438 1438 1437 1436 1436 1435 1434 1434 1433 1432 1431 1430 1429 1428 1427 1426 1425 1425 1424 1424 1423 1423 1423 1422 1422 1421 1420 1420 1419 1419 1418 1418 1417 1416 1416 1416 1415 1415 1414 1413
1437 1436 1436 1435 1435 1435 1434 1433 1432 1432 1431 1430 1429 1429 1428 1427 1426 1425 1424 1423 1422 1422 1421 1421 1421 1421 1420 1420 1420 1419 1418 1418 1417 1417 1416 1415 1415 1414 1412 1412 1412 1412 1411 1410
1433 1434 1432 1431 1431 1431 1430 1430 1429 1428 1427 1427 1426 1425 1424 1423 1423 1422 1421 1420 1420 1419 1419 1419 1418 1418 1418 1418 1417 1417 1416 1416 1415 1415 1414 1414 1413 1412 1411 1410 1409 1408 1408 1408
1429 1430 1429 1428 1427 1427 1427 1426 1425 1424 1424 1423 1422 1422 1421 1420 1419 1419 1418 1418 1417 1417 1417 1416 1416 1416 1416 1415 1415 1415 1414 1414 1413 1413 1412 1412 1411 1410 1409 1408 1407 1406 1405 1404
1425 1425 1424 1424 1423 1423 1422 1422 1421 1420 1420 1420 1419 1418 1418 1417 1416 1416 1416 1415 1414 1414 1414 1414 1414 1414 1413 1413 1413 1412 1412 1412 1411 1411 1410 1409 1408 1408 1407 1406 1405 1404 1403 1402
1422 1421 1420 1420 1419 1419 1419 1418 1418 1417 1417 1417 1416 1415 1415 1414 1413 1413 1413 1413 1412 1412 1412 1412 1412 1411 1411 1411 1410 1410 1410 1409 1409 1408 1408 1407 1406 1405 1405 1404 1403 1402 1401 1400
1419 1418 1417 1417 1416 1415 1415 1415 1415 1414 1414 1414 1413 1412 1411 1411 1410 1410 1410 1410 1410 1409 1410 1409 1409 1409 1409 1408 1408 1408 1407 1407 1406 1406 1405 1404 1404 1403 1403 1402 1401 1400 1399 1398
1415 1415 1414 1414 1413 1413 1412 1412 1411 1411 1410 1410 1410 1409 1408 1408 1408 1408 1408 1407 1407 1406 1407 1407 1407 1406 1406 1406 1405 1405 1405 1404 1403 1403 1402 1402 1401 1401 1400 1399 1398 1398 1397 1395
1413 1412 1411 1411 1410 1410 1409 1408 1408 1408 1407 1407 1407 1406 1406 1406 1405 1405 1405 1404 1405 1404 1404 1404 1404 1404 1403 1403 1403 1402 1402 1401 1400 1400 1399 1399 1398 1398 1397 1396 1396 1395 1394 1392
1410 1409 1409 1408 1407 1407 1406 1406 1405 1405 1404 1404 1404 1403 1403 1403 1403 1402 1402 1402 1402 1402 1401 1401 1401 1401 1401 1400 1400 1400 1399 1398 1398 1397 1396 1396 1395 1395 1394 1393 1392 1391 1390 1389
1408 1407 1406 1406 1405 1404 1404 1403 1402 1402 1402 1401 1401 1401 1400 1400 1400 1400 1399 1400 1399 1399 1399 1398 1398 1398 1398 1398 1397 1396 1396 1395 1395 1394 1393 1393 1392 1391 1390 1390 1389 1388 1387 1386
1406 1405 1404 1404 1403 1402 1401 1401 1400 1400 1399 1399 1398 1398 1398 1398 1397 1397 1397 1397 1397 1396 1396 1396 1396 1396 1395 1395 1394 1393 1393 1392 1392 1391 1390 1389 1389 1388 1387 1386 1385 1384 1383 1382
1403 1403 1402 1402 1401 1400 1399 1399 1398 1397 1397 1397 1396 1396 1396 1395 1395 1395 1394 1394 1394 1393 1393 1393 1393 1393 1392 1391 1391 1390 1390 1389 1388 1388 1387 1386 1385 1384 1383 1382 1381 1380 1379 1378
1401 1401 1400 1400 1399 1398 1398 1397 1396 1396 1395 1395 1394 1394 1394 1393 1393 1392 1392 1391 1391 1390 1390 1390 1390 1389 1389 1388 1387 1387 1386 1386 1385 1384 1383 1382 1381 1380 1379 1378 1377 1376 1375 1374
1399 1399 1398 1398 1398 1397 1396 1395 1394 1394 1393 1392 1392 1392 1391 1391 1390 1390 1389 1389 1388 1388 1387 1387 1386 1386 1385 1384 1384 1383 1383 1382 1381 1381 1380 1379 1378 1376 1375 1374 1373 1372 1371 1370
1397 1397 1396 1396 1395 1395 1394 1393 1393 1392 1391 1391 1390 1390 1389 1389 1388 1387 1387 1386 1385 1385 1384 1383 1383 1382 1382 1381 1380 1379 1379 1378 1377 1377 1376 1375 1373 1372 1371 1370 1369 1368 1367 1365